Location: Austin
(30.3000°N, 97.7500°W)
Time: 23:53:14
(UTC-05:00)

Cosmos 1535 Rocket - Pass Details

Date: 06 May 2026
Orbit: 949 x 1003 km, 83.0° (Epoch: 13 May)

Event Time Altitude Azimuth Distance (km) Brightness Sun altitude
Rises 20:42:59 0° 175° (S) 3,607 7.2 -7.0°
Reaches altitude 10° 20:45:28 10° 173° (S) 2,669 6.5 -7.5°
Maximum altitude 20:51:29 64° 93° (E) 1,053 4.5 -8.6°
Drops below altitude 10° 20:57:36 10° 13° (NNE) 2,713 7.0 -9.8°
Sets 21:00:09 0° 10° (N) 3,671 7.7 -10.3°
